Simultaneous Nadir Overpasses (SNOs) Predictions

Prediction of SNOs between FY3D and TERRA Satellite Orbit:

Table of predicted SNOs for the next 14.0 days since TLE Epoch: 6/4/2022
Index Date (FY3D) Time (FY3D) Lat,Lon (FY3D) SZA (FY3D ) Date (TERRA) Time (TERRA) Lat,Lon (TERRA) SZA (TERRA ) Distance(km) Time Diff (sec)
1 06/05/2022 23:32:11 -71.56, 6.67 131.17 06/05/2022 23:33:14 -71.57, 6.74 131.17 2.77 63
2 06/06/2022 00:22:55 71.43, 174.19 48.70 06/06/2022 00:22:42 71.41, 174.13 48.68 3.14 13
3 06/06/2022 01:13:29 -70.87, -17.51 131.87 06/06/2022 01:12:19 -70.92, -19.02 131.83 55.34 70
4 06/08/2022 14:59:16 71.58, -45.12 48.60 06/08/2022 15:00:11 71.56, -45.03 48.58 3.37 55
5 06/08/2022 15:49:59 -71.47, 122.38 131.51 06/08/2022 15:49:41 -71.45, 122.41 131.54 3.12 18
6 06/08/2022 16:40:28 70.57, -68.76 47.59 06/08/2022 16:39:22 70.58, -71.29 47.59 93.30 66
7 06/11/2022 06:26:20 -71.57, -96.85 131.62 06/11/2022 06:27:12 -71.55, -96.83 131.65 2.56 52
8 06/11/2022 07:17:04 71.44, 70.68 48.25 06/11/2022 07:16:39 71.44, 70.64 48.25 1.60 25
9 06/13/2022 21:53:25 71.54,-148.55 48.20 06/13/2022 21:54:10 71.54,-148.61 48.19 2.40 45
10 06/13/2022 22:44:09 -71.50, 18.85 131.86 06/13/2022 22:43:39 -71.48, 18.93 131.87 3.25 30
11 06/16/2022 13:20:29 -71.55, 159.70 131.91 06/16/2022 13:21:10 -71.58, 159.68 131.89 3.41 41
12 06/16/2022 14:11:14 71.47, -32.85 48.01 06/16/2022 14:10:37 71.47, -32.86 48.01 0.39 37



Historial Predications of SNOs between FY3D and TERRA
